IRIDIUM 134

Last updated on Tue Sep 22 2026 00:03:21 GMT+0000 (Coordinated Universal Time)

1 43075U 17083F 26264.05790680 .00000027 00000+0 24207-5 0 9991 2 43075 86.3912 281.9865 0002099 90.1243 270.0193 14.34217599457843
UTC large
Height (km)
Speed (km/s)
/
Latitude / Longitude
Inclination (degrees)
Orbital Period (minutes)
Azimuth
Elevation
Range (km)
Doppler Factor

Next 0 passes for location: London (51.5072 / 0.1276)

No passes found over London.
IRIDIUM 134